QPF
0.00 0.00 0.00 0.00 0.00 0.00 0.00 0.00 0.00 0.00 0.00 0.00 0.00 0.00 0.00 0.00 0.00 0.00 0.00 0.00 0.00 0.00 0.00 0.00 0.00 0.00 0.00 0.00 0.00 0.00 0.00 0.00 0.00 0.00 0.00 0.00 0.00 0.00 0.00 0.00 0.00 0.00 0.00 0.00 0.00 0.00 0.00 0.00 0.00
0.00 0.00 0.00 0.00 0.00 0.00 0.00 0.00 0.00 0.00 0.00 0.00 0.00 0.00 0.00 0.00 0.00 0.00 0.00 0.00 0.00 0.00 0.00 0.00 0.00 0.00 0.00 0.00 0.00 0.00 0.00 0.00 0.00 0.00 0.00 0.00 0.00 0.00 0.00 0.00 0.00 0.00 0.00 0.00 0.00 0.00 0.00 0.00 0.00
0.00 0.00 0.00 0.00 0.00 0.00 0.00 0.00 0.00 0.00 0.00 0.00 0.00 0.00 0.00 0.00 0.00 0.00 0.00 0.00 0.00 0.00 0.00 0.00 0.00 0.00 0.00 0.00 0.00 0.00 0.00 0.00 0.00 0.00 0.00 0.00 0.00 0.00 0.00 0.00 0.00 0.00 0.01 0.01 0.01 0.01 0.00 0.00 0.00
0.00 0.00 0.00 0.00 0.00 0.00 0.00 0.00 0.00 0.00 0.00 0.00 0.00 0.00 0.00 0.00 0.00 0.00 0.00 0.00 0.00 0.00 0.00 0.00 0.00 0.00 0.00 0.00 0.00 0.00 0.00 0.00 0.00 0.00 0.00 0.00 0.00 0.00 0.00 0.00 0.01 0.01 0.01 0.01 0.01 0.01 0.01 0.00 0.00
0.00 0.00 0.00 0.00 0.00 0.00 0.00 0.00 0.00 0.00 0.00 0.00 0.00 0.00 0.00 0.00 0.00 0.00 0.00 0.00 0.00 0.00 0.00 0.00 0.00 0.00 0.00 0.00 0.00 0.00 0.00 0.00 0.00 0.00 0.00 0.00 0.01 0.01 0.01 0.01 0.01 0.01 0.01 0.01 0.01 0.01 0.00 0.00 0.00
0.00 0.00 0.00 0.00 0.00 0.00 0.00 0.00 0.00 0.00 0.00 0.00 0.00 0.00 0.00 0.00 0.00 0.00 0.00 0.00 0.00 0.00 0.00 0.00 0.00 0.00 0.00 0.00 0.00 0.00 0.00 0.00 0.00 0.00 0.00 0.00 0.00 0.01 0.01 0.01 0.01 0.01 0.01 0.00 0.00 0.00 0.00 0.00 0.00
0.00 0.00 0.00 0.00 0.00 0.00 0.00 0.00 0.00 0.00 0.00 0.00 0.00 0.00 0.00 0.00 0.00 0.00 0.00 0.00 0.00 0.00 0.00 0.00 0.01 0.01 0.01 0.01 0.00 0.00 0.00 0.00 0.00 0.00 0.00 0.00 0.00 0.00 0.00 0.00 0.00 0.00 0.00 0.00 0.00 0.00 0.00 0.00 0.00
0.00 0.00 0.00 0.00 0.00 0.00 0.00 0.00 0.00 0.00 0.00 0.00 0.00 0.00 0.00 0.00 0.00 0.00 0.00 0.00 0.00 0.00 0.00 0.01 0.01 0.02 0.02 0.01 0.01 0.01 0.01 0.01 0.00 0.00 0.00 0.00 0.00 0.00 0.00 0.00 0.00 0.00 0.00 0.00 0.00 0.00 0.01 0.00 0.00
0.00 0.00 0.00 0.00 0.00 0.00 0.00 0.00 0.00 0.00 0.00 0.00 0.00 0.00 0.00 0.00 0.00 0.00 0.00 0.00 0.00 0.00 0.01 0.01 0.01 0.02 0.02 0.02 0.02 0.02 0.02 0.02 0.02 0.01 0.01 0.01 0.00 0.00 0.00 0.00 0.00 0.00 0.01 0.01 0.01 0.02 0.02 0.03 0.03
0.00 0.00 0.00 0.00 0.00 0.00 0.00 0.00 0.00 0.00 0.00 0.00 0.00 0.00 0.00 0.00 0.00 0.00 0.00 0.00 0.00 0.00 0.01 0.01 0.01 0.02 0.02 0.02 0.02 0.04 0.04 0.05 0.05 0.04 0.04 0.04 0.04 0.02 0.01 0.00 0.00 0.01 0.01 0.02 0.03 0.05 0.07 0.08 0.09
0.00 0.00 0.00 0.00 0.00 0.00 0.00 0.00 0.00 0.00 0.00 0.00 0.00 0.00 0.00 0.00 0.00 0.00 0.00 0.00 0.01 0.01 0.00 0.01 0.01 0.01 0.02 0.03 0.02 0.04 0.05 0.06 0.06 0.05 0.07 0.09 0.09 0.06 0.04 0.03 0.02 0.01 0.02 0.04 0.08 0.14 0.11 0.12 0.15
0.00 0.00 0.00 0.00 0.00 0.00 0.00 0.00 0.00 0.00 0.00 0.00 0.00 0.00 0.00 0.00 0.00 0.00 0.00 0.00 0.01 0.01 0.01 0.01 0.01 0.01 0.01 0.02 0.02 0.03 0.03 0.04 0.05 0.06 0.07 0.10 0.10 0.08 0.08 0.08 0.06 0.05 0.05 0.05 0.10 0.18 0.20 0.22 0.23
0.00 0.00 0.00 0.00 0.00 0.00 0.00 0.00 0.00 0.00 0.00 0.00 0.00 0.00 0.00 0.00 0.00 0.00 0.00 0.01 0.01 0.02 0.03 0.02 0.02 0.02 0.01 0.02 0.03 0.02 0.02 0.02 0.03 0.05 0.07 0.10 0.11 0.10 0.12 0.11 0.10 0.09 0.08 0.08 0.11 0.17 0.19 0.24 0.28
0.00 0.00 0.00 0.00 0.00 0.00 0.00 0.00 0.00 0.00 0.00 0.00 0.00 0.00 0.00 0.00 0.00 0.00 0.00 0.01 0.02 0.04 0.04 0.03 0.03 0.03 0.02 0.02 0.01 0.01 0.01 0.02 0.03 0.05 0.07 0.11 0.13 0.15 0.16 0.15 0.14 0.12 0.12 0.15 0.18 0.20 0.22 0.24 0.27
0.00 0.00 0.00 0.00 0.00 0.00 0.00 0.00 0.00 0.00 0.00 0.00 0.00 0.00 0.00 0.00 0.01 0.01 0.01 0.02 0.03 0.04 0.03 0.04 0.04 0.04 0.03 0.02 0.03 0.02 0.02 0.03 0.05 0.08 0.11 0.16 0.18 0.19 0.21 0.19 0.17 0.17 0.21 0.22 0.22 0.21 0.24 0.22 0.22
0.00 0.00 0.00 0.00 0.00 0.00 0.00 0.00 0.00 0.00 0.00 0.00 0.01 0.01 0.01 0.01 0.01 0.01 0.01 0.02 0.02 0.03 0.03 0.03 0.03 0.03 0.02 0.02 0.02 0.02 0.03 0.05 0.09 0.12 0.16 0.18 0.19 0.22 0.24 0.24 0.23 0.24 0.25 0.23 0.21 0.20 0.22 0.24 0.26
0.00 0.00 0.00 0.00 0.00 0.00 0.00 0.00 0.00 0.00 0.01 0.01 0.01 0.01 0.01 0.01 0.02 0.02 0.02 0.02 0.04 0.04 0.03 0.02 0.02 0.02 0.02 0.02 0.02 0.03 0.05 0.09 0.14 0.20 0.24 0.27 0.27 0.26 0.25 0.25 0.24 0.24 0.22 0.17 0.13 0.13 0.14 0.17 0.18
0.00 0.00 0.00 0.00 0.00 0.00 0.00 0.00 0.00 0.00 0.00 0.01 0.01 0.01 0.01 0.02 0.02 0.03 0.03 0.02 0.03 0.02 0.01 0.01 0.00 0.00 0.00 0.01 0.05 0.09 0.13 0.17 0.23 0.30 0.33 0.34 0.33 0.32 0.30 0.25 0.21 0.18 0.15 0.12 0.11 0.09 0.09 0.08 0.08
0.00 0.00 0.00 0.00 0.00 0.00 0.00 0.00 0.00 0.00 0.00 0.01 0.01 0.01 0.01 0.01 0.01 0.01 0.02 0.01 0.01 0.01 0.00 0.00 0.00 0.00 0.00 0.01 0.04 0.07 0.09 0.14 0.21 0.26 0.30 0.33 0.35 0.34 0.31 0.25 0.20 0.16 0.13 0.10 0.07 0.06 0.04 0.03 0.04
0.00 0.00 0.00 0.00 0.00 0.00 0.00 0.00 0.00 0.00 0.00 0.00 0.00 0.00 0.00 0.00 0.00 0.01 0.00 0.00 0.00 0.00 0.00 0.00 0.00 0.00 0.00 0.01 0.02 0.04 0.06 0.08 0.14 0.21 0.27 0.32 0.35 0.37 0.36 0.29 0.22 0.16 0.12 0.10 0.06 0.04 0.03 0.02 0.02
0.00 0.00 0.00 0.00 0.00 0.00 0.00 0.01 0.01 0.00 0.00 0.00 0.00 0.00 0.00 0.00 0.00 0.00 0.00 0.00 0.00 0.00 0.00 0.00 0.00 0.00 0.00 0.01 0.01 0.02 0.03 0.05 0.06 0.09 0.14 0.20 0.23 0.24 0.24 0.22 0.18 0.15 0.13 0.10 0.09 0.06 0.04 0.02 0.01
0.00 0.00 0.00 0.00 0.00 0.00 0.01 0.04 0.02 0.00 0.00 0.00 0.00 0.00 0.00 0.00 0.00 0.00 0.00 0.00 0.00 0.00 0.00 0.00 0.00 0.00 0.00 0.00 0.01 0.01 0.02 0.03 0.04 0.06 0.08 0.10 0.12 0.14 0.16 0.15 0.15 0.13 0.12 0.10 0.08 0.07 0.07 0.04 0.02
0.00 0.00 0.00 0.00 0.00 0.00 0.00 0.03 0.04 0.01 0.00 0.00 0.00 0.00 0.00 0.00 0.00 0.00 0.00 0.00 0.00 0.00 0.00 0.00 0.00 0.00 0.00 0.00 0.00 0.00 0.00 0.01 0.02 0.02 0.03 0.04 0.05 0.07 0.10 0.11 0.11 0.12 0.11 0.09 0.08 0.07 0.07 0.06 0.03
0.00 0.00 0.00 0.00 0.00 0.02 0.01 0.02 0.06 0.02 0.01 0.00 0.00 0.00 0.00 0.00 0.00 0.00 0.00 0.00 0.00 0.00 0.00 0.00 0.00 0.00 0.00 0.00 0.00 0.00 0.00 0.00 0.00 0.01 0.01 0.01 0.02 0.03 0.05 0.07 0.09 0.11 0.11 0.11 0.10 0.08 0.06 0.06 0.06
0.01 0.01 0.01 0.00 0.00 0.02 0.01 0.02 0.04 0.01 0.00 0.00 0.00 0.00 0.00 0.00 0.00 0.00 0.00 0.00 0.00 0.00 0.00 0.00 0.00 0.00 0.00 0.00 0.00 0.00 0.00 0.00 0.00 0.00 0.00 0.00 0.00 0.01 0.01 0.02 0.04 0.07 0.10 0.12 0.13 0.12 0.09 0.08 0.08
0.01 0.01 0.01 0.01 0.01 0.02 0.02 0.05 0.02 0.00 0.00 0.00 0.00 0.00 0.00 0.00 0.00 0.00 0.00 0.00 0.00 0.00 0.00 0.00 0.00 0.00 0.00 0.00 0.00 0.00 0.00 0.00 0.00 0.00 0.00 0.00 0.00 0.00 0.00 0.01 0.01 0.02 0.05 0.09 0.13 0.15 0.14 0.13 0.09
0.00 0.00 0.00 0.00 0.00 0.02 0.04 0.04 0.02 0.00 0.00 0.00 0.00 0.00 0.00 0.00 0.00 0.00 0.00 0.00 0.00 0.00 0.00 0.00 0.00 0.00 0.00 0.00 0.00 0.00 0.00 0.00 0.00 0.00 0.00 0.00 0.00 0.00 0.00 0.00 0.00 0.01 0.02 0.04 0.08 0.13 0.16 0.19 0.18
0.00 0.00 0.00 0.00 0.01 0.02 0.03 0.05 0.05 0.01 0.00 0.00 0.00 0.00 0.00 0.00 0.00 0.00 0.00 0.00 0.00 0.00 0.00 0.00 0.00 0.00 0.00 0.00 0.00 0.00 0.00 0.00 0.00 0.00 0.00 0.00 0.00 0.00 0.00 0.00 0.00 0.00 0.00 0.01 0.03 0.07 0.14 0.21 0.24
0.00 0.00 0.00 0.00 0.00 0.01 0.01 0.01 0.01 0.00 0.00 0.00 0.00 0.00 0.00 0.00 0.00 0.00 0.00 0.00 0.00 0.00 0.00 0.00 0.00 0.00 0.00 0.00 0.00 0.00 0.00 0.00 0.00 0.00 0.00 0.00 0.00 0.00 0.00 0.00 0.00 0.00 0.00 0.00 0.01 0.03 0.07 0.16 0.26
0.00 0.00 0.00 0.00 0.00 0.00 0.00 0.00 0.00 0.00 0.00 0.00 0.00 0.00 0.00 0.00 0.00 0.00 0.00 0.00 0.00 0.00 0.00 0.00 0.00 0.00 0.00 0.00 0.00 0.00 0.00 0.00 0.00 0.00 0.00 0.00 0.00 0.00 0.00 0.00 0.00 0.00 0.00 0.00 0.00 0.01 0.03 0.08 0.16
MSLP
1011.64 1012.12 1012.54 1012.82 1012.88 1012.68 1012.25 1011.67 1011.04 1010.47 1010.02 1009.75 1009.63 1009.61 1009.61 1009.57 1009.45 1009.27 1009.07 1008.95 1008.98 1009.23 1009.72 1010.39 1011.15 1011.89 1012.50 1012.91 1013.11 1013.13 1013.06 1012.99 1013.02 1013.19 1013.51 1013.93 1014.38 1014.78 1015.07 1015.23 1015.28 1015.27 1015.26 1015.31 1015.44 1015.66 1015.93 1016.20 1016.42
1011.85 1012.34 1012.73 1012.93 1012.89 1012.57 1012.03 1011.34 1010.61 1009.95 1009.45 1009.14 1009.01 1009.01 1009.06 1009.09 1009.06 1008.98 1008.90 1008.89 1009.02 1009.34 1009.87 1010.56 1011.33 1012.07 1012.69 1013.12 1013.35 1013.43 1013.40 1013.38 1013.43 1013.60 1013.87 1014.22 1014.57 1014.87 1015.07 1015.16 1015.18 1015.17 1015.19 1015.28 1015.47 1015.74 1016.05 1016.34 1016.57
1011.99 1012.44 1012.76 1012.85 1012.69 1012.26 1011.62 1010.86 1010.08 1009.40 1008.90 1008.61 1008.51 1008.56 1008.67 1008.78 1008.85 1008.87 1008.89 1008.96 1009.16 1009.52 1010.06 1010.75 1011.50 1012.23 1012.84 1013.29 1013.57 1013.70 1013.74 1013.77 1013.85 1014.01 1014.24 1014.51 1014.76 1014.96 1015.07 1015.10 1015.08 1015.07 1015.13 1015.27 1015.51 1015.83 1016.17 1016.47 1016.69
1012.06 1012.43 1012.64 1012.61 1012.33 1011.81 1011.11 1010.32 1009.55 1008.91 1008.46 1008.23 1008.20 1008.32 1008.50 1008.68 1008.83 1008.93 1009.01 1009.14 1009.37 1009.75 1010.28 1010.93 1011.64 1012.33 1012.93 1013.39 1013.70 1013.88 1013.98 1014.06 1014.17 1014.33 1014.52 1014.73 1014.90 1015.02 1015.06 1015.04 1015.01 1015.01 1015.10 1015.28 1015.57 1015.92 1016.27 1016.57 1016.76
1012.07 1012.33 1012.41 1012.26 1011.88 1011.29 1010.58 1009.82 1009.11 1008.55 1008.20 1008.06 1008.11 1008.29 1008.53 1008.77 1008.96 1009.10 1009.22 1009.37 1009.61 1009.97 1010.46 1011.06 1011.71 1012.35 1012.91 1013.36 1013.68 1013.90 1014.05 1014.17 1014.31 1014.47 1014.65 1014.81 1014.94 1015.00 1015.00 1014.97 1014.94 1014.96 1015.08 1015.31 1015.62 1015.98 1016.33 1016.61 1016.76
1012.03 1012.17 1012.12 1011.87 1011.43 1010.83 1010.14 1009.45 1008.85 1008.41 1008.16 1008.12 1008.23 1008.46 1008.72 1008.97 1009.17 1009.31 1009.44 1009.59 1009.81 1010.13 1010.57 1011.10 1011.69 1012.26 1012.77 1013.19 1013.50 1013.73 1013.91 1014.06 1014.22 1014.39 1014.56 1014.71 1014.82 1014.87 1014.87 1014.84 1014.84 1014.90 1015.05 1015.30 1015.63 1015.98 1016.31 1016.55 1016.67
1011.97 1011.99 1011.84 1011.52 1011.05 1010.48 1009.87 1009.29 1008.81 1008.49 1008.35 1008.37 1008.53 1008.76 1009.01 1009.22 1009.39 1009.51 1009.61 1009.73 1009.93 1010.21 1010.60 1011.07 1011.58 1012.08 1012.53 1012.89 1013.18 1013.39 1013.56 1013.72 1013.89 1014.07 1014.25 1014.40 1014.52 1014.59 1014.62 1014.64 1014.68 1014.78 1014.96 1015.23 1015.55 1015.88 1016.17 1016.37 1016.45
1011.87 1011.81 1011.60 1011.25 1010.80 1010.29 1009.78 1009.33 1008.99 1008.78 1008.72 1008.78 1008.93 1009.13 1009.32 1009.48 1009.58 1009.65 1009.72 1009.82 1009.99 1010.24 1010.59 1011.00 1011.44 1011.87 1012.24 1012.54 1012.77 1012.94 1013.09 1013.23 1013.39 1013.56 1013.75 1013.92 1014.07 1014.18 1014.25 1014.32 1014.41 1014.56 1014.76 1015.04 1015.35 1015.65 1015.90 1016.06 1016.10
1011.73 1011.62 1011.39 1011.06 1010.67 1010.26 1009.88 1009.57 1009.35 1009.24 1009.23 1009.30 1009.42 1009.55 1009.66 1009.73 1009.77 1009.79 1009.82 1009.90 1010.05 1010.28 1010.59 1010.96 1011.33 1011.68 1011.98 1012.20 1012.36 1012.47 1012.56 1012.67 1012.80 1012.96 1013.14 1013.33 1013.50 1013.65 1013.77 1013.90 1014.04 1014.21 1014.44 1014.71 1015.00 1015.28 1015.49 1015.61 1015.63
1011.54 1011.42 1011.21 1010.95 1010.66 1010.38 1010.14 1009.96 1009.86 1009.82 1009.84 1009.90 1009.96 1010.02 1010.04 1010.03 1010.01 1009.98 1009.99 1010.06 1010.20 1010.42 1010.70 1011.02 1011.33 1011.61 1011.82 1011.96 1012.03 1012.07 1012.09 1012.14 1012.22 1012.35 1012.51 1012.69 1012.88 1013.05 1013.21 1013.37 1013.55 1013.75 1013.99 1014.25 1014.53 1014.77 1014.96 1015.06 1015.07
1011.31 1011.22 1011.07 1010.90 1010.73 1010.60 1010.51 1010.47 1010.47 1010.50 1010.54 1010.57 1010.59 1010.57 1010.52 1010.45 1010.38 1010.33 1010.32 1010.38 1010.52 1010.72 1010.97 1011.24 1011.49 1011.69 1011.81 1011.86 1011.85 1011.80 1011.75 1011.72 1011.74 1011.81 1011.93 1012.09 1012.26 1012.44 1012.61 1012.79 1012.98 1013.19 1013.43 1013.68 1013.94 1014.17 1014.34 1014.44 1014.45
1011.07 1011.03 1010.96 1010.91 1010.89 1010.91 1010.97 1011.06 1011.16 1011.24 1011.31 1011.33 1011.31 1011.25 1011.16 1011.05 1010.95 1010.89 1010.88 1010.93 1011.05 1011.22 1011.43 1011.64 1011.81 1011.92 1011.96 1011.92 1011.82 1011.69 1011.56 1011.45 1011.40 1011.40 1011.47 1011.57 1011.70 1011.85 1012.01 1012.18 1012.36 1012.56 1012.79 1013.04 1013.28 1013.50 1013.68 1013.79 1013.82
1010.86 1010.88 1010.91 1010.98 1011.11 1011.28 1011.49 1011.70 1011.90 1012.05 1012.14 1012.17 1012.14 1012.07 1011.96 1011.85 1011.74 1011.68 1011.66 1011.70 1011.79 1011.91 1012.05 1012.18 1012.26 1012.28 1012.23 1012.11 1011.93 1011.73 1011.52 1011.34 1011.21 1011.14 1011.12 1011.16 1011.23 1011.33 1011.45 1011.58 1011.74 1011.92 1012.13 1012.37 1012.60 1012.83 1013.01 1013.15 1013.22
1010.73 1010.81 1010.93 1011.12 1011.39 1011.70 1012.04 1012.37 1012.66 1012.88 1013.02 1013.08 1013.06 1013.00 1012.91 1012.80 1012.71 1012.64 1012.61 1012.62 1012.65 1012.70 1012.75 1012.77 1012.76 1012.69 1012.55 1012.36 1012.12 1011.85 1011.58 1011.34 1011.14 1010.99 1010.90 1010.86 1010.85 1010.89 1010.95 1011.04 1011.16 1011.32 1011.51 1011.72 1011.95 1012.18 1012.39 1012.55 1012.66
1010.69 1010.83 1011.04 1011.34 1011.72 1012.16 1012.61 1013.04 1013.41 1013.70 1013.88 1013.98 1014.00 1013.96 1013.89 1013.81 1013.73 1013.66 1013.60 1013.56 1013.52 1013.47 1013.42 1013.33 1013.22 1013.05 1012.84 1012.59 1012.31 1012.00 1011.69 1011.40 1011.14 1010.93 1010.76 1010.64 1010.57 1010.54 1010.54 1010.59 1010.67 1010.79 1010.96 1011.16 1011.38 1011.61 1011.83 1012.01 1012.16
1010.76 1010.94 1011.22 1011.60 1012.08 1012.61 1013.16 1013.67 1014.11 1014.44 1014.67 1014.79 1014.85 1014.84 1014.80 1014.74 1014.67 1014.58 1014.49 1014.38 1014.26 1014.12 1013.95 1013.76 1013.55 1013.32 1013.05 1012.76 1012.45 1012.12 1011.79 1011.47 1011.17 1010.90 1010.67 1010.49 1010.36 1010.28 1010.24 1010.25 1010.30 1010.40 1010.53 1010.71 1010.92 1011.13 1011.35 1011.55 1011.71
1010.91 1011.11 1011.44 1011.89 1012.44 1013.05 1013.66 1014.22 1014.69 1015.05 1015.29 1015.44 1015.51 1015.52 1015.50 1015.45 1015.37 1015.27 1015.14 1014.97 1014.77 1014.54 1014.29 1014.02 1013.74 1013.45 1013.15 1012.85 1012.53 1012.20 1011.86 1011.52 1011.19 1010.89 1010.62 1010.40 1010.23 1010.12 1010.05 1010.04 1010.07 1010.15 1010.27 1010.41 1010.59 1010.78 1010.97 1011.15 1011.31
1011.09 1011.31 1011.67 1012.17 1012.77 1013.42 1014.06 1014.64 1015.12 1015.47 1015.71 1015.85 1015.91 1015.92 1015.90 1015.85 1015.77 1015.65 1015.48 1015.27 1015.01 1014.72 1014.41 1014.09 1013.77 1013.46 1013.16 1012.86 1012.55 1012.23 1011.89 1011.55 1011.21 1010.89 1010.60 1010.37 1010.18 1010.06 1010.00 1009.99 1010.02 1010.08 1010.17 1010.28 1010.41 1010.55 1010.69 1010.83 1010.95
1011.25 1011.49 1011.88 1012.42 1013.05 1013.72 1014.37 1014.93 1015.38 1015.69 1015.89 1015.99 1016.02 1016.01 1015.97 1015.91 1015.82 1015.69 1015.51 1015.28 1015.00 1014.68 1014.35 1014.01 1013.70 1013.40 1013.11 1012.83 1012.55 1012.25 1011.92 1011.58 1011.24 1010.92 1010.63 1010.39 1010.22 1010.12 1010.08 1010.08 1010.12 1010.18 1010.24 1010.31 1010.37 1010.44 1010.50 1010.57 1010.65
1011.34 1011.61 1012.04 1012.61 1013.26 1013.94 1014.56 1015.09 1015.48 1015.74 1015.86 1015.90 1015.88 1015.83 1015.76 1015.69 1015.59 1015.47 1015.29 1015.07 1014.79 1014.49 1014.17 1013.87 1013.58 1013.31 1013.06 1012.82 1012.56 1012.28 1011.97 1011.64 1011.30 1010.98 1010.70 1010.49 1010.34 1010.27 1010.27 1010.31 1010.36 1010.42 1010.46 1010.47 1010.46 1010.43 1010.40 1010.38 1010.38
1011.37 1011.68 1012.15 1012.75 1013.42 1014.09 1014.68 1015.16 1015.48 1015.64 1015.69 1015.65 1015.56 1015.46 1015.37 1015.28 1015.19 1015.08 1014.93 1014.74 1014.51 1014.24 1013.97 1013.71 1013.47 1013.25 1013.04 1012.84 1012.61 1012.35 1012.06 1011.73 1011.40 1011.09 1010.82 1010.63 1010.52 1010.50 1010.53 1010.61 1010.68 1010.74 1010.75 1010.70 1010.61 1010.49 1010.36 1010.24 1010.16
1011.36 1011.72 1012.24 1012.87 1013.55 1014.21 1014.76 1015.17 1015.41 1015.49 1015.45 1015.33 1015.19 1015.04 1014.93 1014.84 1014.76 1014.67 1014.56 1014.41 1014.23 1014.02 1013.80 1013.60 1013.40 1013.23 1013.07 1012.89 1012.69 1012.44 1012.15 1011.83 1011.51 1011.20 1010.96 1010.79 1010.71 1010.73 1010.80 1010.91 1011.00 1011.05 1011.04 1010.94 1010.78 1010.57 1010.34 1010.13 1009.96
1011.35 1011.76 1012.33 1013.00 1013.69 1014.33 1014.84 1015.19 1015.35 1015.35 1015.23 1015.05 1014.85 1014.68 1014.55 1014.46 1014.40 1014.35 1014.27 1014.17 1014.03 1013.87 1013.70 1013.53 1013.38 1013.24 1013.10 1012.94 1012.75 1012.52 1012.24 1011.92 1011.60 1011.30 1011.06 1010.91 1010.86 1010.89 1010.99 1011.12 1011.22 1011.27 1011.24 1011.10 1010.89 1010.61 1010.31 1010.03 1009.79
1011.40 1011.86 1012.46 1013.15 1013.84 1014.46 1014.93 1015.22 1015.32 1015.26 1015.08 1014.86 1014.63 1014.44 1014.31 1014.24 1014.20 1014.16 1014.12 1014.04 1013.93 1013.79 1013.64 1013.50 1013.36 1013.23 1013.10 1012.95 1012.77 1012.53 1012.26 1011.94 1011.62 1011.32 1011.09 1010.94 1010.89 1010.93 1011.04 1011.16 1011.27 1011.32 1011.27 1011.12 1010.88 1010.57 1010.23 1009.90 1009.63
1011.53 1012.03 1012.66 1013.35 1014.02 1014.60 1015.02 1015.26 1015.31 1015.21 1015.01 1014.76 1014.53 1014.35 1014.23 1014.17 1014.15 1014.13 1014.09 1014.02 1013.91 1013.77 1013.61 1013.45 1013.30 1013.17 1013.03 1012.88 1012.69 1012.46 1012.18 1011.86 1011.54 1011.24 1011.00 1010.84 1010.77 1010.79 1010.88 1010.99 1011.09 1011.13 1011.08 1010.94 1010.70 1010.40 1010.07 1009.74 1009.46
1011.78 1012.28 1012.90 1013.57 1014.20 1014.73 1015.11 1015.30 1015.31 1015.19 1014.98 1014.74 1014.53 1014.37 1014.27 1014.23 1014.22 1014.20 1014.16 1014.07 1013.93 1013.76 1013.56 1013.37 1013.19 1013.03 1012.87 1012.70 1012.51 1012.27 1012.00 1011.68 1011.35 1011.04 1010.78 1010.59 1010.48 1010.46 1010.51 1010.59 1010.67 1010.70 1010.66 1010.54 1010.35 1010.09 1009.80 1009.52 1009.26
1012.12 1012.61 1013.19 1013.80 1014.37 1014.84 1015.15 1015.29 1015.28 1015.15 1014.95 1014.74 1014.56 1014.44 1014.37 1014.35 1014.34 1014.31 1014.24 1014.12 1013.94 1013.71 1013.47 1013.23 1013.01 1012.81 1012.62 1012.44 1012.24 1012.00 1011.72 1011.40 1011.07 1010.74 1010.44 1010.21 1010.05 1009.97 1009.96 1009.99 1010.03 1010.05 1010.03 1009.95 1009.82 1009.64 1009.43 1009.22 1009.03
1012.54 1012.98 1013.50 1014.03 1014.51 1014.89 1015.13 1015.22 1015.19 1015.06 1014.89 1014.72 1014.58 1014.50 1014.47 1014.46 1014.45 1014.40 1014.30 1014.13 1013.90 1013.62 1013.32 1013.03 1012.77 1012.53 1012.32 1012.13 1011.92 1011.68 1011.40 1011.08 1010.73 1010.37 1010.04 1009.75 1009.52 1009.37 1009.29 1009.25 1009.25 1009.25 1009.24 1009.21 1009.14 1009.05 1008.95 1008.84 1008.74
1013.00 1013.37 1013.80 1014.22 1014.60 1014.88 1015.04 1015.08 1015.03 1014.91 1014.77 1014.64 1014.55 1014.51 1014.50 1014.51 1014.49 1014.42 1014.29 1014.07 1013.80 1013.48 1013.14 1012.81 1012.51 1012.26 1012.03 1011.82 1011.60 1011.36 1011.07 1010.74 1010.37 1009.98 1009.61 1009.26 1008.96 1008.73 1008.57 1008.46 1008.40 1008.38 1008.37 1008.36 1008.36 1008.36 1008.36 1008.36 1008.36
1013.46 1013.76 1014.08 1014.39 1014.65 1014.82 1014.90 1014.89 1014.82 1014.71 1014.60 1014.52 1014.47 1014.46 1014.48 1014.48 1014.46 1014.37 1014.20 1013.95 1013.64 1013.29 1012.93 1012.59 1012.28 1012.01 1011.77 1011.55 1011.33 1011.07 1010.78 1010.43 1010.04 1009.62 1009.19 1008.79 1008.42 1008.11 1007.87 1007.69 1007.57 1007.50 1007.48 1007.49 1007.53 1007.60 1007.68 1007.78 1007.88
Thickness
5829 5832 5833 5826 5818 5825 5827 5835 5844 5846 5851 5859 5859 5854 5849 5844 5836 5828 5849 5858 5853 5847 5837 5825 5819 5816 5812 5810 5807 5805 5803 5800 5797 5794 5791 5788 5785 5782 5779 5776 5774 5772 5770 5768 5766 5764 5762 5760 5758
5835 5834 5829 5825 5824 5826 5825 5838 5841 5845 5854 5860 5858 5854 5850 5847 5850 5846 5849 5851 5849 5843 5834 5825 5816 5813 5810 5807 5805 5802 5800 5797 5794 5791 5789 5786 5783 5780 5777 5775 5772 5771 5769 5767 5765 5763 5761 5759 5756
5835 5834 5827 5830 5832 5824 5824 5840 5845 5852 5859 5856 5852 5855 5849 5843 5845 5846 5849 5848 5845 5839 5831 5821 5813 5809 5806 5803 5801 5798 5796 5793 5791 5788 5786 5783 5781 5778 5776 5773 5771 5769 5767 5766 5764 5761 5759 5758 5755
5831 5827 5828 5828 5830 5835 5837 5845 5851 5851 5858 5857 5854 5847 5847 5846 5847 5848 5847 5845 5841 5834 5828 5818 5809 5805 5802 5799 5797 5795 5792 5789 5787 5785 5782 5781 5778 5776 5774 5772 5769 5767 5765 5764 5762 5760 5758 5756 5754
5831 5828 5826 5829 5831 5838 5848 5851 5853 5849 5852 5853 5852 5843 5837 5843 5848 5847 5844 5842 5837 5832 5827 5815 5806 5802 5798 5795 5793 5791 5789 5786 5783 5781 5779 5777 5775 5773 5771 5769 5767 5765 5763 5761 5759 5757 5756 5754 5752
5826 5828 5822 5822 5825 5836 5849 5855 5854 5849 5850 5851 5849 5842 5834 5842 5842 5841 5841 5838 5836 5830 5825 5813 5803 5799 5795 5793 5790 5787 5785 5783 5780 5778 5776 5774 5772 5770 5768 5766 5764 5762 5761 5759 5757 5755 5753 5752 5750
5822 5823 5818 5819 5821 5828 5841 5854 5851 5848 5846 5847 5850 5840 5835 5839 5840 5840 5836 5834 5832 5828 5823 5812 5805 5798 5793 5790 5788 5785 5783 5780 5777 5775 5772 5770 5769 5767 5765 5763 5761 5759 5758 5756 5754 5752 5751 5749 5747
5830 5824 5819 5820 5816 5823 5841 5849 5849 5845 5842 5851 5852 5838 5831 5834 5838 5836 5831 5827 5825 5822 5819 5811 5807 5802 5796 5792 5786 5783 5780 5778 5775 5772 5769 5767 5765 5763 5761 5759 5758 5756 5754 5753 5751 5749 5748 5746 5745
5826 5813 5812 5816 5813 5821 5836 5836 5842 5851 5845 5843 5842 5839 5839 5839 5836 5829 5822 5818 5814 5812 5812 5809 5806 5800 5797 5793 5788 5781 5777 5774 5771 5768 5765 5763 5764 5764 5761 5758 5756 5752 5751 5749 5748 5747 5745 5744 5743
5817 5808 5814 5820 5820 5820 5825 5825 5829 5836 5830 5827 5825 5827 5831 5830 5828 5824 5818 5811 5807 5805 5805 5804 5803 5798 5795 5791 5787 5782 5779 5776 5771 5770 5767 5763 5762 5761 5760 5758 5752 5749 5747 5747 5746 5744 5743 5742 5744
5814 5810 5814 5817 5821 5820 5819 5818 5821 5821 5809 5805 5809 5814 5819 5820 5820 5820 5815 5811 5807 5803 5801 5799 5797 5793 5790 5787 5784 5780 5777 5774 5770 5767 5763 5760 5758 5756 5755 5753 5750 5747 5745 5746 5747 5745 5744 5744 5744
5808 5810 5810 5812 5816 5812 5810 5811 5804 5796 5789 5799 5808 5812 5811 5810 5812 5811 5808 5805 5802 5797 5794 5793 5788 5784 5781 5779 5778 5774 5771 5769 5766 5762 5759 5756 5753 5751 5750 5747 5748 5747 5746 5746 5747 5745 5746 5744 5743
5800 5802 5806 5809 5808 5805 5802 5796 5788 5780 5785 5791 5795 5797 5797 5798 5798 5799 5797 5794 5790 5786 5783 5780 5777 5774 5771 5769 5767 5767 5764 5762 5761 5756 5753 5750 5748 5746 5745 5743 5741 5742 5744 5744 5744 5745 5744 5743 5741
5801 5800 5799 5800 5798 5795 5788 5783 5777 5768 5776 5776 5776 5775 5776 5776 5778 5779 5778 5776 5776 5773 5771 5770 5767 5764 5762 5760 5759 5758 5757 5755 5753 5751 5748 5744 5741 5740 5737 5736 5737 5738 5738 5740 5741 5742 5741 5741 5740
5801 5793 5790 5789 5790 5789 5789 5766 5756 5760 5765 5762 5761 5760 5760 5761 5762 5761 5763 5764 5764 5762 5762 5760 5759 5757 5754 5753 5752 5753 5751 5750 5747 5744 5741 5737 5733 5732 5730 5730 5731 5734 5734 5734 5735 5737 5738 5738 5738
5797 5791 5779 5776 5782 5783 5780 5747 5745 5754 5754 5750 5750 5750 5749 5749 5751 5752 5754 5754 5755 5754 5752 5750 5751 5748 5746 5745 5744 5745 5743 5741 5740 5737 5734 5730 5726 5723 5722 5723 5726 5728 5728 5729 5731 5732 5733 5733 5734
5789 5783 5776 5769 5774 5778 5771 5740 5738 5746 5744 5740 5740 5740 5740 5741 5743 5744 5746 5746 5745 5743 5741 5740 5738 5737 5737 5738 5737 5737 5735 5733 5732 5729 5727 5723 5720 5716 5715 5717 5720 5722 5723 5725 5728 5731 5729 5728 5729
5775 5777 5771 5762 5763 5765 5752 5735 5734 5738 5736 5733 5733 5734 5734 5734 5734 5737 5738 5738 5736 5734 5731 5729 5728 5727 5728 5730 5729 5728 5727 5726 5724 5722 5719 5716 5713 5710 5710 5713 5715 5717 5719 5720 5722 5724 5724 5724 5726
5778 5774 5767 5757 5757 5752 5739 5731 5730 5732 5731 5728 5728 5728 5728 5729 5730 5731 5730 5729 5727 5724 5721 5718 5716 5716 5716 5717 5716 5715 5716 5716 5715 5714 5711 5708 5706 5706 5705 5707 5708 5709 5711 5715 5718 5719 5719 5719 5723
5774 5769 5762 5751 5750 5746 5734 5727 5728 5728 5725 5725 5724 5723 5724 5724 5723 5722 5721 5720 5718 5714 5711 5710 5707 5706 5705 5704 5704 5704 5704 5705 5704 5702 5700 5699 5699 5699 5700 5700 5700 5701 5704 5708 5709 5710 5712 5716 5718
5773 5771 5765 5751 5744 5745 5737 5723 5723 5726 5726 5723 5722 5721 5720 5718 5716 5714 5713 5712 5710 5707 5704 5702 5698 5696 5694 5693 5695 5695 5695 5696 5694 5691 5691 5689 5690 5690 5692 5692 5695 5696 5696 5698 5700 5702 5702 5705 5710
5767 5777 5769 5754 5743 5742 5740 5722 5722 5724 5721 5720 5719 5717 5715 5714 5712 5710 5708 5705 5703 5701 5699 5695 5691 5687 5684 5683 5682 5680 5679 5679 5679 5679 5680 5680 5681 5682 5683 5684 5686 5687 5688 5690 5693 5698 5697 5697 5701
5769 5775 5769 5759 5752 5745 5741 5733 5721 5723 5718 5718 5717 5715 5713 5711 5708 5704 5702 5700 5697 5695 5692 5688 5683 5678 5675 5671 5669 5668 5669 5669 5670 5669 5669 5669 5671 5671 5672 5674 5675 5676 5678 5680 5684 5688 5690 5692 5694
5772 5767 5762 5760 5757 5733 5738 5733 5715 5722 5719 5717 5716 5713 5709 5707 5704 5701 5698 5695 5691 5688 5685 5680 5674 5669 5666 5663 5660 5657 5655 5655 5655 5654 5656 5658 5660 5660 5661 5662 5663 5665 5667 5669 5673 5677 5681 5684 5688
5770 5756 5742 5735 5734 5730 5738 5732 5716 5721 5720 5717 5713 5710 5707 5704 5700 5695 5691 5687 5683 5680 5675 5671 5666 5661 5657 5654 5652 5649 5647 5645 5645 5645 5647 5647 5649 5650 5650 5651 5651 5653 5655 5658 5661 5666 5670 5675 5678
5762 5758 5738 5724 5727 5733 5732 5724 5715 5718 5717 5714 5712 5708 5703 5698 5695 5689 5684 5679 5675 5671 5666 5661 5656 5651 5648 5646 5643 5641 5639 5640 5641 5640 5638 5638 5638 5639 5639 5638 5639 5641 5644 5647 5649 5653 5659 5664 5668
5758 5757 5760 5745 5739 5728 5729 5719 5710 5711 5709 5708 5705 5701 5696 5691 5686 5682 5677 5672 5667 5661 5656 5651 5646 5642 5639 5637 5635 5634 5633 5631 5630 5629 5629 5631 5630 5629 5629 5627 5627 5629 5631 5634 5637 5641 5646 5651 5657
5761 5754 5749 5739 5717 5713 5723 5719 5710 5705 5703 5702 5698 5694 5689 5684 5679 5675 5669 5663 5658 5653 5648 5644 5638 5634 5632 5630 5629 5629 5626 5623 5622 5621 5620 5619 5618 5617 5616 5616 5616 5617 5619 5620 5623 5629 5634 5637 5643
5749 5745 5741 5738 5728 5710 5707 5714 5716 5706 5701 5696 5693 5689 5683 5677 5672 5666 5661 5656 5650 5645 5640 5635 5631 5628 5626 5623 5621 5618 5616 5614 5612 5610 5609 5608 5606 5604 5604 5604 5604 5605 5606 5608 5610 5615 5620 5625 5630
5747 5738 5736 5722 5715 5715 5710 5711 5715 5708 5701 5694 5688 5683 5677 5670 5664 5658 5653 5647 5642 5637 5632 5627 5624 5621 5618 5616 5612 5609 5606 5604 5601 5599 5596 5593 5591 5589 5589 5589 5590 5591 5594 5596 5598 5601 5606 5612 5617